INFORMACIÓN METAR y TAF
METAR FOR LSGG
ADDS - METARS form results

(0900 UTC 25 August 2019)
Data provider http://aviationweather.gov/metar/data/
 
METAR text: LSGG 250850Z VRB02KT CAVOK 21/14 Q1021 NOSIG
Conditions at: LSGG (GENEVA/COINTRIN , CH) observed 0850 UTC 25 August 2019
Temperature: 21.0°C (70°F)
Dewpoint: 14.0°C (57°F) [RH = 64%]
Pressure (altimeter): 30.15 inches Hg (1021.0 mb)
Winds: variable direction winds at 2 MPH (2 knots; 1.0 m/s)
Visibility: 6 or more miles (10+ km)
Ceiling: ceiling and visibility are OK
Clouds: unknown
Weather: no significant weather observed at this time

METAR text: LSGG 250820Z 07003KT CAVOK 20/13 Q1021 NOSIG
Conditions at: LSGG (GENEVA/COINTRIN , CH) observed 0820 UTC 25 August 2019
Temperature: 20.0°C (68°F)
Dewpoint: 13.0°C (55°F) [RH = 64%]
Pressure (altimeter): 30.15 inches Hg (1021.0 mb)
Winds: from the ENE (70 degrees) at 3 MPH (3 knots; 1.5 m/s)
Visibility: 6 or more miles (10+ km)
Ceiling: ceiling and visibility are OK
Clouds: unknown
Weather: no significant weather observed at this time

Forecast for: LSGG (GENEVA/COINTRIN , CH)
Text: TAF LSGG 250825Z 2509/2615 VRB03KT CAVOK TX29/2515Z TN14/2605Z TX29/2615Z
Forecast period: 0900 UTC 25 August 2019 to 1500 UTC 26 August 2019
Forecast type: FROM: standard forecast or significant change
Winds: variable direction winds at 3 MPH (3 knots; 1.5 m/s)
Visibility: 6 or more miles 10+ km)
Ceiling: unknown
Clouds: missing
Weather: no significant weather forecast for this period

 MAPA DE AEROPUERTO

 INFORMACIÓN DE PISTA
Pista 05 Longitud 12795 ft Ancho 164 ft
Elevación 1411 ft Umbral desplazado 1082 ft Rumbo de pista 46
Pista 23 Longitud 12795 ft Ancho 164 ft
Elevación 1365 ft Umbral desplazado 0 ft Rumbo de pista 226
Pista 05L Longitud 2700 ft Ancho 98 ft
Elevación 1378 ft Umbral desplazado 613 ft Rumbo de pista 46
Pista 23R Longitud 2700 ft Ancho 98 ft
Elevación 1393 ft Umbral desplazado 994 ft Rumbo de pista 226

 FRECUANCIAS DEL AEROPUERTO
Tipo APP Nombre APP Frecuencia 120.3 MHZ
Tipo ARR Nombre ARR Frecuencia 136.25 MHZ
Tipo ATIS Nombre ATIS Frecuencia 135.575 MHZ
Tipo DEP Nombre DEP Frecuencia 119.525 MHZ
Tipo GND Nombre GND Frecuencia 121.675 MHZ
Tipo GTE Nombre APN Frecuencia 121.75 MHZ
Tipo TWR Nombre TWR Frecuencia 118.7 MHZ

 RADIO AYUDAS DEL AEROPUERTO
Tipo NDB Nombre Gland Frecuencia 375 KHZ
Tipo VOR-DME Nombre Geneva Cointrin Frecuencia 115750 KHZ
Tipo VOR-DME Nombre Passeiry Frecuencia 116600 KHZ



Powered by Virtual Airlines Manager [v2.6.2]